Time,TemperatureF,DewpointF,PressureIn,WindDirection,WindDirectionDegrees,WindSpeedMPH,WindSpeedGustMPH,Humidity,HourlyPrecipIn,Conditions,Clouds,dailyrainin,SoftwareType,DateUTC
2013-11-17 00:01:00,52.6,46.9,30.05,SSW,200,0.0,0.0,81,0.00,,,0.00,Wunderground v.1.15,2013-11-17 05:01:00,
2013-11-17 00:02:00,52.6,46.9,30.05,SSW,198,0.0,0.0,81,0.00,,,0.00,Wunderground v.1.15,2013-11-17 05:02:00,
2013-11-17 00:07:00,52.3,46.6,30.05,SSW,198,0.0,0.0,81,0.00,,,0.00,Wunderground v.1.15,2013-11-17 05:07:00,
2013-11-17 00:08:00,52.3,46.6,30.05,SSW,198,0.0,0.0,81,0.00,,,0.00,Wunderground v.1.15,2013-11-17 05:08:00,
2013-11-17 00:09:00,52.2,46.5,30.05,SSW,198,0.0,0.0,81,0.00,,,0.00,Wunderground v.1.15,2013-11-17 05:09:00,
2013-11-17 00:10:00,52.2,46.5,30.05,SSW,198,0.0,0.0,81,0.00,,,0.00,Wunderground v.1.15,2013-11-17 05:10:00,
2013-11-17 00:16:00,51.9,46.9,30.04,SSW,198,0.0,0.0,83,0.00,,,0.00,Wunderground v.1.15,2013-11-17 05:16:00,
2013-11-17 00:21:00,51.9,46.9,30.03,SSW,198,0.0,0.0,83,0.00,,,0.00,Wunderground v.1.15,2013-11-17 05:21:00,
2013-11-17 00:27:00,52.3,47.3,30.04,SSW,198,0.0,0.0,83,0.00,,,0.00,Wunderground v.1.15,2013-11-17 05:27:00,
2013-11-17 00:32:00,52.8,47.5,30.04,East,84,0.0,1.0,82,0.00,,,0.00,Wunderground v.1.15,2013-11-17 05:32:00,
2013-11-17 00:38:00,53.4,47.7,30.04,South,180,0.0,1.0,81,0.00,,,0.00,Wunderground v.1.15,2013-11-17 05:38:00,
2013-11-17 00:43:00,53.9,47.9,30.03,South,170,0.0,0.0,80,0.00,,,0.00,Wunderground v.1.15,2013-11-17 05:43:00,
2013-11-17 00:48:00,54.2,47.8,30.03,SSE,161,0.0,2.0,79,0.00,,,0.00,Wunderground v.1.15,2013-11-17 05:48:00,
2013-11-17 00:53:00,54.4,48.0,30.03,West,272,0.0,0.0,79,0.00,,,0.00,Wunderground v.1.15,2013-11-17 05:53:00,
2013-11-17 00:59:00,54.5,47.8,30.03,SSW,199,0.0,2.0,78,0.00,,,0.00,Wunderground v.1.15,2013-11-17 05:59:00,
2013-11-17 01:04:00,54.8,48.1,30.03,WSW,237,0.0,0.0,78,0.00,,,0.00,Wunderground v.1.15,2013-11-17 06:04:00,
2013-11-17 01:10:00,55.1,48.0,30.03,SSE,152,0.0,0.0,77,0.00,,,0.00,Wunderground v.1.15,2013-11-17 06:10:00,
2013-11-17 01:16:00,54.9,47.8,30.03,South,176,0.0,0.0,77,0.00,,,0.00,Wunderground v.1.15,2013-11-17 06:16:00,
2013-11-17 01:21:00,54.9,47.8,30.03,South,179,0.0,0.0,77,0.00,,,0.00,Wunderground v.1.15,2013-11-17 06:21:00,
2013-11-17 01:27:00,54.9,47.8,30.03,South,185,0.0,0.0,77,0.00,,,0.00,Wunderground v.1.15,2013-11-17 06:27:00,
2013-11-17 01:32:00,55.3,48.2,30.02,WNW,293,0.0,0.0,77,0.00,,,0.00,Wunderground v.1.15,2013-11-17 06:32:00,
2013-11-17 01:38:00,55.4,48.3,30.02,WNW,293,0.0,0.0,77,0.00,,,0.00,Wunderground v.1.15,2013-11-17 06:38:00,
2013-11-17 01:43:00,55.4,48.3,30.03,South,186,0.0,0.0,77,0.00,,,0.00,Wunderground v.1.15,2013-11-17 06:43:00,
2013-11-17 01:49:00,55.3,48.2,30.02,South,186,0.0,0.0,77,0.00,,,0.00,Wunderground v.1.15,2013-11-17 06:49:00,
2013-11-17 01:54:00,55.1,48.0,30.02,South,186,0.0,0.0,77,0.00,,,0.00,Wunderground v.1.15,2013-11-17 06:54:00,
2013-11-17 01:59:00,54.8,48.1,30.02,South,186,0.0,0.0,78,0.00,,,0.00,Wunderground v.1.15,2013-11-17 06:59:00,
2013-11-17 02:05:00,54.6,47.9,30.03,South,186,0.0,0.0,78,0.00,,,0.00,Wunderground v.1.15,2013-11-17 07:05:00,
2013-11-17 02:10:00,54.5,48.1,30.02,South,186,0.0,0.0,79,0.00,,,0.00,Wunderground v.1.15,2013-11-17 07:10:00,
2013-11-17 02:16:00,54.2,47.8,30.03,South,186,0.0,0.0,79,0.00,,,0.00,Wunderground v.1.15,2013-11-17 07:16:00,
2013-11-17 02:22:00,53.9,47.9,30.03,South,186,0.0,0.0,80,0.00,,,0.00,Wunderground v.1.15,2013-11-17 07:22:00,
2013-11-17 02:28:00,53.8,48.1,30.02,South,186,0.0,0.0,81,0.00,,,0.00,Wunderground v.1.15,2013-11-17 07:28:00,
2013-11-17 02:33:00,53.7,48.0,30.02,South,186,0.0,0.0,81,0.00,,,0.00,Wunderground v.1.15,2013-11-17 07:33:00,
2013-11-17 02:38:00,53.7,48.3,30.02,South,186,0.0,0.0,82,0.00,,,0.00,Wunderground v.1.15,2013-11-17 07:38:00,
2013-11-17 02:44:00,53.6,49.5,30.02,South,186,0.0,0.0,86,0.00,,,0.00,Wunderground v.1.15,2013-11-17 07:44:00,
2013-11-17 02:49:00,53.4,49.6,30.02,South,186,0.0,0.0,87,0.00,,,0.00,Wunderground v.1.15,2013-11-17 07:49:00,
2013-11-17 02:54:00,53.3,49.8,30.03,South,186,0.0,0.0,88,0.00,,,0.00,Wunderground v.1.15,2013-11-17 07:54:00,
2013-11-17 03:00:00,52.9,49.1,30.02,South,186,0.0,0.0,87,0.00,,,0.00,Wunderground v.1.15,2013-11-17 08:00:00,
2013-11-17 03:06:00,52.6,49.4,30.02,South,186,0.0,0.0,89,0.00,,,0.00,Wunderground v.1.15,2013-11-17 08:06:00,
2013-11-17 03:11:00,52.4,49.6,30.02,South,186,0.0,0.0,90,0.00,,,0.00,Wunderground v.1.15,2013-11-17 08:11:00,
2013-11-17 03:16:00,52.2,49.4,30.02,SSE,162,0.0,0.0,90,0.00,,,0.00,Wunderground v.1.15,2013-11-17 08:16:00,
2013-11-17 03:21:00,52.0,49.5,30.01,SSE,162,0.0,0.0,91,0.00,,,0.00,Wunderground v.1.15,2013-11-17 08:21:00,
2013-11-17 03:27:00,51.8,49.3,30.00,SSE,162,0.0,0.0,91,0.00,,,0.00,Wunderground v.1.15,2013-11-17 08:27:00,
2013-11-17 03:32:00,51.8,49.5,30.00,SSE,163,0.0,0.0,92,0.00,,,0.00,Wunderground v.1.15,2013-11-17 08:32:00,
2013-11-17 03:37:00,51.9,49.6,30.00,SSE,163,0.0,0.0,92,0.00,,,0.00,Wunderground v.1.15,2013-11-17 08:37:00,
2013-11-17 03:43:00,51.9,49.4,29.99,SSW,201,0.0,1.0,91,0.00,,,0.00,Wunderground v.1.15,2013-11-17 08:43:00,
2013-11-17 03:48:00,52.2,49.7,29.99,SSW,195,0.0,1.0,91,0.00,,,0.00,Wunderground v.1.15,2013-11-17 08:48:00,
2013-11-17 03:53:00,52.5,49.9,29.99,South,190,0.0,1.0,91,0.00,,,0.00,Wunderground v.1.15,2013-11-17 08:53:00,
2013-11-17 03:58:00,52.7,49.8,29.99,WSW,256,0.0,1.0,90,0.00,,,0.00,Wunderground v.1.15,2013-11-17 08:58:00,
2013-11-17 04:04:00,52.6,49.8,29.99,SW,230,0.0,1.0,90,0.00,,,0.00,Wunderground v.1.15,2013-11-17 09:04:00,
2013-11-17 04:10:00,52.6,50.0,29.99,SW,230,0.0,0.0,91,0.00,,,0.00,Wunderground v.1.15,2013-11-17 09:10:00,
2013-11-17 04:15:00,52.5,49.9,29.99,SW,230,0.0,0.0,91,0.00,,,0.00,Wunderground v.1.15,2013-11-17 09:15:00,
2013-11-17 04:21:00,52.5,49.9,29.99,SW,230,0.0,0.0,91,0.00,,,0.00,Wunderground v.1.15,2013-11-17 09:21:00,
2013-11-17 04:26:00,52.4,49.8,29.99,SW,230,0.0,0.0,91,0.00,,,0.00,Wunderground v.1.15,2013-11-17 09:26:00,
2013-11-17 04:32:00,52.3,50.0,29.99,SW,230,0.0,0.0,92,0.00,,,0.00,Wunderground v.1.15,2013-11-17 09:32:00,
2013-11-17 04:37:00,52.2,49.9,29.99,SW,230,0.0,0.0,92,0.00,,,0.00,Wunderground v.1.15,2013-11-17 09:37:00,
2013-11-17 04:42:00,52.2,49.9,29.99,SW,230,0.0,0.0,92,0.00,,,0.00,Wunderground v.1.15,2013-11-17 09:42:00,
2013-11-17 04:47:00,52.2,49.9,29.99,SW,230,0.0,0.0,92,0.00,,,0.00,Wunderground v.1.15,2013-11-17 09:47:00,
2013-11-17 04:53:00,52.1,49.8,29.98,South,185,0.0,0.0,92,0.00,,,0.00,Wunderground v.1.15,2013-11-17 09:53:00,
2013-11-17 04:58:00,52.0,49.7,29.98,South,185,0.0,0.0,92,0.00,,,0.00,Wunderground v.1.15,2013-11-17 09:58:00,
2013-11-17 05:03:00,51.9,49.9,29.98,South,185,0.0,0.0,93,0.00,,,0.00,Wunderground v.1.15,2013-11-17 10:03:00,
2013-11-17 05:08:00,51.9,49.9,29.98,South,185,0.0,0.0,93,0.00,,,0.00,Wunderground v.1.15,2013-11-17 10:08:00,
2013-11-17 05:13:00,51.8,49.8,29.98,South,185,0.0,0.0,93,0.00,,,0.00,Wunderground v.1.15,2013-11-17 10:13:00,
2013-11-17 05:18:00,51.8,49.8,29.97,SSE,148,0.0,1.0,93,0.00,,,0.00,Wunderground v.1.15,2013-11-17 10:18:00,
2013-11-17 05:24:00,52.0,50.0,29.98,SSE,148,0.0,0.0,93,0.00,,,0.00,Wunderground v.1.15,2013-11-17 10:24:00,
2013-11-17 05:29:00,52.1,50.1,29.98,SSE,148,0.0,0.0,93,0.00,,,0.00,Wunderground v.1.15,2013-11-17 10:29:00,
2013-11-17 05:34:00,52.2,49.9,29.98,SSE,148,0.0,0.0,92,0.00,,,0.00,Wunderground v.1.15,2013-11-17 10:34:00,
2013-11-17 05:39:00,52.3,50.0,29.98,ESE,110,0.0,0.0,92,0.00,,,0.00,Wunderground v.1.15,2013-11-17 10:39:00,
2013-11-17 05:45:00,52.5,50.2,29.98,ESE,111,0.0,0.0,92,0.00,,,0.00,Wunderground v.1.15,2013-11-17 10:45:00,
2013-11-17 05:50:00,52.6,50.0,29.98,ESE,111,0.0,0.0,91,0.00,,,0.00,Wunderground v.1.15,2013-11-17 10:50:00,
2013-11-17 05:55:00,52.9,50.0,29.98,South,169,0.0,1.0,90,0.00,,,0.00,Wunderground v.1.15,2013-11-17 10:55:00,
2013-11-17 06:00:00,53.0,50.1,29.98,South,184,0.0,0.0,90,0.00,,,0.00,Wunderground v.1.15,2013-11-17 11:00:00,
2013-11-17 06:06:00,53.2,50.0,29.97,South,183,0.0,1.0,89,0.00,,,0.00,Wunderground v.1.15,2013-11-17 11:06:00,
2013-11-17 06:11:00,53.5,50.6,29.98,South,172,0.0,1.0,90,0.00,,,0.00,Wunderground v.1.15,2013-11-17 11:11:00,
2013-11-17 06:17:00,53.5,50.6,29.98,SSE,163,0.0,1.0,90,0.00,,,0.00,Wunderground v.1.15,2013-11-17 11:17:00,
2013-11-17 06:22:00,53.3,50.7,29.98,SE,125,0.0,2.0,91,0.00,,,0.00,Wunderground v.1.15,2013-11-17 11:22:00,
2013-11-17 06:27:00,53.4,50.8,29.98,SE,134,1.0,2.0,91,0.00,,,0.00,Wunderground v.1.15,2013-11-17 11:27:00,
2013-11-17 06:33:00,53.5,50.9,29.97,SSE,159,1.0,1.0,91,0.00,,,0.00,Wunderground v.1.15,2013-11-17 11:33:00,
2013-11-17 06:39:00,53.5,51.2,29.97,SSE,159,0.0,1.0,92,0.00,,,0.00,Wunderground v.1.15,2013-11-17 11:39:00,
2013-11-17 06:44:00,53.4,51.1,29.98,South,182,0.0,0.0,92,0.00,,,0.00,Wunderground v.1.15,2013-11-17 11:44:00,
2013-11-17 06:49:00,53.3,50.7,29.98,South,182,0.0,0.0,91,0.00,,,0.00,Wunderground v.1.15,2013-11-17 11:49:00,
2013-11-17 06:54:00,53.1,50.8,29.97,ESE,120,0.0,0.0,92,0.00,,,0.00,Wunderground v.1.15,2013-11-17 11:54:00,
2013-11-17 07:00:00,53.0,50.7,29.98,ESE,120,0.0,0.0,92,0.00,,,0.00,Wunderground v.1.15,2013-11-17 12:00:00,
2013-11-17 07:06:00,52.8,50.5,29.98,ESE,120,0.0,0.0,92,0.00,,,0.00,Wunderground v.1.15,2013-11-17 12:06:00,
2013-11-17 07:11:00,52.6,50.6,29.98,ESE,120,0.0,0.0,93,0.00,,,0.00,Wunderground v.1.15,2013-11-17 12:11:00,
2013-11-17 07:16:00,52.4,50.4,29.98,ESE,120,0.0,0.0,93,0.00,,,0.00,Wunderground v.1.15,2013-11-17 12:16:00,
2013-11-17 07:21:00,52.4,50.4,29.98,ESE,120,0.0,0.0,93,0.00,,,0.00,Wunderground v.1.15,2013-11-17 12:21:00,
2013-11-17 07:26:00,52.4,50.7,29.98,ESE,120,0.0,0.0,94,0.00,,,0.00,Wunderground v.1.15,2013-11-17 12:26:00,
2013-11-17 07:31:00,52.4,50.7,29.98,ESE,120,0.0,0.0,94,0.00,,,0.00,Wunderground v.1.15,2013-11-17 12:31:00,
2013-11-17 07:36:00,52.5,50.8,29.98,South,184,0.0,0.0,94,0.00,,,0.00,Wunderground v.1.15,2013-11-17 12:36:00,
2013-11-17 07:41:00,52.6,50.9,29.97,South,184,0.0,0.0,94,0.00,,,0.00,Wunderground v.1.15,2013-11-17 12:41:00,
2013-11-17 07:47:00,52.7,51.0,29.97,South,184,0.0,0.0,94,0.00,,,0.00,Wunderground v.1.15,2013-11-17 12:47:00,
2013-11-17 07:52:00,52.7,51.0,29.97,South,184,0.0,0.0,94,0.00,,,0.00,Wunderground v.1.15,2013-11-17 12:52:00,
2013-11-17 07:57:00,52.8,51.4,29.97,South,184,0.0,0.0,95,0.00,,,0.00,Wunderground v.1.15,2013-11-17 12:57:00,
2013-11-17 08:03:00,52.9,51.5,29.97,South,184,0.0,0.0,95,0.00,,,0.00,Wunderground v.1.15,2013-11-17 13:03:00,
2013-11-17 08:08:00,53.0,51.6,29.97,South,184,0.0,0.0,95,0.00,,,0.00,Wunderground v.1.15,2013-11-17 13:08:00,
2013-11-17 08:13:00,53.1,51.7,29.97,South,185,0.0,2.0,95,0.00,,,0.00,Wunderground v.1.15,2013-11-17 13:13:00,
2013-11-17 08:18:00,53.2,51.8,29.97,South,185,0.0,2.0,95,0.00,,,0.00,Wunderground v.1.15,2013-11-17 13:18:00,
2013-11-17 08:24:00,53.3,51.9,29.97,WNW,298,0.0,1.0,95,0.00,,,0.00,Wunderground v.1.15,2013-11-17 13:24:00,
2013-11-17 08:29:00,53.4,52.0,29.97,WNW,299,0.0,1.0,95,0.00,,,0.01,Wunderground v.1.15,2013-11-17 13:29:00,
2013-11-17 08:34:00,53.5,52.1,29.97,East,97,0.0,1.0,95,0.09,,,0.02,Wunderground v.1.15,2013-11-17 13:34:00,
2013-11-17 08:39:00,53.7,52.3,29.97,East,98,0.0,1.0,95,0.07,,,0.02,Wunderground v.1.15,2013-11-17 13:39:00,
2013-11-17 08:44:00,53.9,52.5,29.96,ESE,107,0.0,2.0,95,0.04,,,0.02,Wunderground v.1.15,2013-11-17 13:44:00,
2013-11-17 08:50:00,54.2,52.5,29.96,SE,133,1.0,1.0,94,0.00,,,0.02,Wunderground v.1.15,2013-11-17 13:50:00,
2013-11-17 08:55:00,54.4,52.7,29.97,SE,141,0.0,2.0,94,0.00,,,0.02,Wunderground v.1.15,2013-11-17 13:55:00,
2013-11-17 09:00:00,54.6,52.9,29.97,SE,134,0.0,1.0,94,0.00,,,0.02,Wunderground v.1.15,2013-11-17 14:00:00,
2013-11-17 09:06:00,54.9,52.9,29.97,SSW,193,1.0,3.0,93,0.00,,,0.02,Wunderground v.1.15,2013-11-17 14:06:00,
2013-11-17 09:11:00,55.1,53.1,29.97,South,173,1.0,2.0,93,0.00,,,0.02,Wunderground v.1.15,2013-11-17 14:11:00,
2013-11-17 09:17:00,55.3,53.3,29.97,SE,128,0.0,2.0,93,0.00,,,0.02,Wunderground v.1.15,2013-11-17 14:17:00,
2013-11-17 09:22:00,55.3,53.3,29.96,ESE,120,0.0,2.0,93,0.00,,,0.03,Wunderground v.1.15,2013-11-17 14:22:00,
2013-11-17 09:27:00,55.4,53.1,29.95,SE,133,1.0,2.0,92,0.00,,,0.03,Wunderground v.1.15,2013-11-17 14:27:00,
2013-11-17 09:32:00,55.7,53.4,29.95,East,98,1.0,2.0,92,0.00,,,0.03,Wunderground v.1.15,2013-11-17 14:32:00,
2013-11-17 09:38:00,56.0,53.4,29.94,South,176,1.0,4.0,91,0.00,,,0.03,Wunderground v.1.15,2013-11-17 14:38:00,
2013-11-17 09:43:00,56.2,53.6,29.95,South,190,1.0,1.0,91,0.00,,,0.03,Wunderground v.1.15,2013-11-17 14:43:00,
2013-11-17 09:48:00,56.2,53.9,29.95,SSE,167,0.0,1.0,92,0.00,,,0.03,Wunderground v.1.15,2013-11-17 14:48:00,
2013-11-17 09:54:00,56.2,53.9,29.95,SSE,150,0.0,1.0,92,0.00,,,0.03,Wunderground v.1.15,2013-11-17 14:54:00,
2013-11-17 09:59:00,56.3,54.0,29.94,SSE,150,0.0,1.0,92,0.00,,,0.03,Wunderground v.1.15,2013-11-17 14:59:00,
2013-11-17 10:04:00,56.4,54.1,29.94,SSE,155,0.0,3.0,92,0.00,,,0.03,Wunderground v.1.15,2013-11-17 15:04:00,
2013-11-17 10:10:00,56.6,54.3,29.94,SSE,155,0.0,0.0,92,0.00,,,0.03,Wunderground v.1.15,2013-11-17 15:10:00,
2013-11-17 10:15:00,56.8,54.5,29.94,SSE,155,0.0,2.0,92,0.00,,,0.03,Wunderground v.1.15,2013-11-17 15:15:00,
2013-11-17 10:20:00,57.1,54.5,29.94,ESE,111,1.0,1.0,91,0.00,,,0.03,Wunderground v.1.15,2013-11-17 15:20:00,
2013-11-17 10:25:00,57.3,54.7,29.94,SE,142,1.0,2.0,91,0.00,,,0.03,Wunderground v.1.15,2013-11-17 15:25:00,
2013-11-17 10:31:00,57.5,54.3,29.94,South,183,1.0,1.0,89,0.00,,,0.03,Wunderground v.1.15,2013-11-17 15:31:00,
2013-11-17 10:36:00,57.5,54.6,29.94,SE,144,1.0,3.0,90,0.00,,,0.03,Wunderground v.1.15,2013-11-17 15:36:00,
2013-11-17 10:41:00,57.5,54.9,29.94,SE,144,0.0,0.0,91,0.00,,,0.03,Wunderground v.1.15,2013-11-17 15:41:00,
2013-11-17 10:46:00,57.5,54.9,29.94,South,182,0.0,0.0,91,0.00,,,0.03,Wunderground v.1.15,2013-11-17 15:46:00,
2013-11-17 10:52:00,57.5,55.2,29.94,South,176,0.0,0.0,92,0.00,,,0.03,Wunderground v.1.15,2013-11-17 15:52:00,
2013-11-17 10:57:00,57.5,55.2,29.94,South,176,0.0,0.0,92,0.00,,,0.03,Wunderground v.1.15,2013-11-17 15:57:00,
2013-11-17 11:02:00,57.5,55.2,29.94,ESE,113,0.0,2.0,92,0.00,,,0.03,Wunderground v.1.15,2013-11-17 16:02:00,
2013-11-17 11:08:00,57.4,55.1,29.94,WNW,300,0.0,2.0,92,0.00,,,0.03,Wunderground v.1.15,2013-11-17 16:08:00,
2013-11-17 11:13:00,57.3,55.0,29.94,NNE,32,0.0,0.0,92,0.00,,,0.04,Wunderground v.1.15,2013-11-17 16:13:00,
2013-11-17 11:18:00,57.3,55.0,29.94,NNE,32,0.0,0.0,92,0.00,,,0.04,Wunderground v.1.15,2013-11-17 16:18:00,
2013-11-17 11:24:00,57.4,55.4,29.93,NNE,32,0.0,0.0,93,0.00,,,0.04,Wunderground v.1.15,2013-11-17 16:24:00,
2013-11-17 11:29:00,57.4,55.4,29.93,NNE,32,0.0,0.0,93,0.00,,,0.04,Wunderground v.1.15,2013-11-17 16:29:00,
2013-11-17 11:35:00,57.3,55.3,29.93,ENE,76,0.0,0.0,93,0.00,,,0.04,Wunderground v.1.15,2013-11-17 16:35:00,
2013-11-17 11:41:00,57.3,55.3,29.93,SE,126,0.0,0.0,93,0.00,,,0.04,Wunderground v.1.15,2013-11-17 16:41:00,
2013-11-17 11:47:00,57.3,55.6,29.93,SE,132,0.0,2.0,94,0.00,,,0.04,Wunderground v.1.15,2013-11-17 16:47:00,
2013-11-17 11:52:00,57.4,55.7,29.93,SE,132,0.0,0.0,94,0.00,,,0.04,Wunderground v.1.15,2013-11-17 16:52:00,
2013-11-17 11:57:00,57.5,55.8,29.93,SE,132,0.0,0.0,94,0.00,,,0.04,Wunderground v.1.15,2013-11-17 16:57:00,
2013-11-17 12:03:00,57.5,55.8,29.92,ESE,123,0.0,2.0,94,0.00,,,0.04,Wunderground v.1.15,2013-11-17 17:03:00,
2013-11-17 12:08:00,57.6,55.9,29.92,South,170,0.0,2.0,94,0.00,,,0.04,Wunderground v.1.15,2013-11-17 17:08:00,
2013-11-17 12:13:00,57.6,55.9,29.92,South,170,0.0,1.0,94,0.00,,,0.04,Wunderground v.1.15,2013-11-17 17:13:00,
2013-11-17 12:19:00,57.7,56.0,29.92,South,170,0.0,1.0,94,0.00,,,0.04,Wunderground v.1.15,2013-11-17 17:19:00,
2013-11-17 12:24:00,57.7,56.0,29.91,South,169,0.0,0.0,94,0.00,,,0.04,Wunderground v.1.15,2013-11-17 17:24:00,
2013-11-17 12:29:00,57.8,55.8,29.91,South,169,0.0,1.0,93,0.00,,,0.04,Wunderground v.1.15,2013-11-17 17:29:00,
2013-11-17 12:34:00,57.9,56.2,29.91,South,169,0.0,0.0,94,0.00,,,0.04,Wunderground v.1.15,2013-11-17 17:34:00,
2013-11-17 12:40:00,58.0,56.3,29.91,South,169,0.0,0.0,94,0.00,,,0.04,Wunderground v.1.15,2013-11-17 17:40:00,
2013-11-17 12:45:00,58.1,56.4,29.90,South,169,0.0,0.0,94,0.00,,,0.04,Wunderground v.1.15,2013-11-17 17:45:00,
2013-11-17 12:50:00,58.1,56.4,29.90,West,263,0.0,1.0,94,0.00,,,0.04,Wunderground v.1.15,2013-11-17 17:50:00,
2013-11-17 12:55:00,58.2,56.2,29.90,SSE,165,0.0,1.0,93,0.00,,,0.04,Wunderground v.1.15,2013-11-17 17:55:00,
2013-11-17 13:00:00,58.2,56.5,29.90,SSE,165,0.0,0.0,94,0.00,,,0.04,Wunderground v.1.15,2013-11-17 18:00:00,
2013-11-17 13:06:00,58.3,56.6,29.90,ESE,122,0.0,0.0,94,0.00,,,0.04,Wunderground v.1.15,2013-11-17 18:06:00,
2013-11-17 13:11:00,58.3,56.6,29.89,NE,41,0.0,0.0,94,0.00,,,0.04,Wunderground v.1.15,2013-11-17 18:11:00,
2013-11-17 13:16:00,58.3,56.3,29.89,SSE,167,0.0,0.0,93,0.00,,,0.04,Wunderground v.1.15,2013-11-17 18:16:00,
2013-11-17 13:22:00,58.3,56.3,29.89,SE,138,1.0,1.0,93,0.00,,,0.04,Wunderground v.1.15,2013-11-17 18:22:00,
2013-11-17 13:27:00,58.3,56.3,29.88,South,182,1.0,3.0,93,0.00,,,0.04,Wunderground v.1.15,2013-11-17 18:27:00,
2013-11-17 13:32:00,58.3,56.3,29.88,South,177,1.0,1.0,93,0.00,,,0.04,Wunderground v.1.15,2013-11-17 18:32:00,
2013-11-17 13:37:00,58.4,56.4,29.87,ESE,105,1.0,3.0,93,0.00,,,0.04,Wunderground v.1.15,2013-11-17 18:37:00,
2013-11-17 13:43:00,58.5,56.5,29.86,ESE,119,2.0,2.0,93,0.00,,,0.04,Wunderground v.1.15,2013-11-17 18:43:00,
2013-11-17 13:48:00,58.6,56.6,29.86,SE,140,1.0,2.0,93,0.00,,,0.04,Wunderground v.1.15,2013-11-17 18:48:00,
2013-11-17 13:53:00,58.6,56.6,29.86,SE,128,1.0,1.0,93,0.00,,,0.04,Wunderground v.1.15,2013-11-17 18:53:00,
2013-11-17 13:59:00,58.7,56.7,29.85,SE,128,1.0,2.0,93,0.00,,,0.04,Wunderground v.1.15,2013-11-17 18:59:00,
2013-11-17 14:04:00,58.8,56.8,29.85,SE,129,0.0,1.0,93,0.00,,,0.04,Wunderground v.1.15,2013-11-17 19:04:00,
2013-11-17 14:10:00,58.7,56.7,29.84,SE,128,0.0,1.0,93,0.00,,,0.04,Wunderground v.1.15,2013-11-17 19:10:00,
2013-11-17 14:15:00,58.8,56.5,29.83,SSE,167,2.0,5.0,92,0.00,,,0.04,Wunderground v.1.15,2013-11-17 19:15:00,
2013-11-17 14:21:00,58.9,56.6,29.83,ESE,103,2.0,4.0,92,0.00,,,0.04,Wunderground v.1.15,2013-11-17 19:21:00,
2013-11-17 14:26:00,59.0,56.7,29.83,SSE,157,2.0,4.0,92,0.00,,,0.04,Wunderground v.1.15,2013-11-17 19:26:00,
2013-11-17 14:31:00,59.0,56.7,29.82,ESE,121,1.0,4.0,92,0.00,,,0.04,Wunderground v.1.15,2013-11-17 19:31:00,
2013-11-17 14:36:00,58.9,56.6,29.81,WSW,239,1.0,4.0,92,0.00,,,0.04,Wunderground v.1.15,2013-11-17 19:36:00,
2013-11-17 14:42:00,58.9,56.6,29.81,SSE,148,2.0,3.0,92,0.00,,,0.04,Wunderground v.1.15,2013-11-17 19:42:00,
2013-11-17 14:47:00,58.9,56.6,29.80,SE,134,2.0,3.0,92,0.00,,,0.04,Wunderground v.1.15,2013-11-17 19:47:00,
2013-11-17 14:52:00,59.0,56.7,29.80,ESE,109,2.0,3.0,92,0.00,,,0.04,Wunderground v.1.15,2013-11-17 19:52:00,
2013-11-17 14:58:00,59.0,56.4,29.80,ESE,115,2.0,5.0,91,0.00,,,0.05,Wunderground v.1.15,2013-11-17 19:58:00,
2013-11-17 15:03:00,59.1,56.5,29.80,ESE,111,2.0,2.0,91,0.00,,,0.05,Wunderground v.1.15,2013-11-17 20:03:00,
2013-11-17 15:08:00,59.0,56.7,29.80,ESE,118,1.0,7.0,92,0.00,,,0.05,Wunderground v.1.15,2013-11-17 20:08:00,
2013-11-17 15:14:00,58.9,56.6,29.80,SSW,200,2.0,8.0,92,0.00,,,0.05,Wunderground v.1.15,2013-11-17 20:14:00,
2013-11-17 15:19:00,59.0,56.7,29.79,SSW,207,2.0,8.0,92,0.00,,,0.05,Wunderground v.1.15,2013-11-17 20:19:00,
2013-11-17 15:25:00,59.1,56.8,29.78,SE,146,2.0,5.0,92,0.00,,,0.06,Wunderground v.1.15,2013-11-17 20:25:00,
2013-11-17 15:30:00,58.9,56.6,29.78,ESE,117,1.0,1.0,92,0.09,,,0.07,Wunderground v.1.15,2013-11-17 20:30:00,
2013-11-17 15:35:00,58.9,56.6,29.78,South,189,1.0,3.0,92,0.09,,,0.07,Wunderground v.1.15,2013-11-17 20:35:00,
2013-11-17 15:40:00,58.8,56.5,29.78,SSE,150,1.0,1.0,92,0.05,,,0.08,Wunderground v.1.15,2013-11-17 20:40:00,
2013-11-17 15:46:00,58.7,56.7,29.78,SE,137,0.0,1.0,93,0.05,,,0.08,Wunderground v.1.15,2013-11-17 20:46:00,
2013-11-17 15:51:00,58.7,56.7,29.77,ESE,113,1.0,1.0,93,0.05,,,0.08,Wunderground v.1.15,2013-11-17 20:51:00,
2013-11-17 15:57:00,58.7,56.4,29.76,South,174,1.0,3.0,92,0.04,,,0.08,Wunderground v.1.15,2013-11-17 20:57:00,
2013-11-17 16:02:00,58.9,56.6,29.76,SSE,160,2.0,2.0,92,0.00,,,0.08,Wunderground v.1.15,2013-11-17 21:02:00,
2013-11-17 16:08:00,59.0,56.7,29.76,NNE,13,2.0,3.0,92,0.00,,,0.09,Wunderground v.1.15,2013-11-17 21:08:00,
2013-11-17 16:13:00,58.9,56.6,29.76,SSW,198,1.0,3.0,92,0.00,,,0.09,Wunderground v.1.15,2013-11-17 21:13:00,
2013-11-17 16:19:00,58.8,56.5,29.76,SE,127,0.0,3.0,92,0.00,,,0.09,Wunderground v.1.15,2013-11-17 21:19:00,
2013-11-17 16:24:00,58.7,56.4,29.75,SE,133,0.0,2.0,92,0.00,,,0.09,Wunderground v.1.15,2013-11-17 21:24:00,
2013-11-17 16:29:00,58.7,56.7,29.74,SE,134,1.0,2.0,93,0.00,,,0.09,Wunderground v.1.15,2013-11-17 21:29:00,
2013-11-17 16:34:00,58.9,56.6,29.74,SSE,165,2.0,3.0,92,0.00,,,0.09,Wunderground v.1.15,2013-11-17 21:34:00,
2013-11-17 16:40:00,59.2,56.6,29.73,SE,134,1.0,1.0,91,0.00,,,0.09,Wunderground v.1.15,2013-11-17 21:40:00,
2013-11-17 16:45:00,59.3,56.7,29.73,SSE,155,1.0,1.0,91,0.00,,,0.09,Wunderground v.1.15,2013-11-17 21:45:00,
2013-11-17 16:50:00,59.0,56.7,29.73,East,98,1.0,1.0,92,0.00,,,0.09,Wunderground v.1.15,2013-11-17 21:50:00,
2013-11-17 16:56:00,59.1,56.8,29.73,WSW,249,2.0,3.0,92,0.00,,,0.10,Wunderground v.1.15,2013-11-17 21:56:00,
2013-11-17 17:02:00,59.2,56.6,29.72,SE,130,2.0,5.0,91,0.00,,,0.10,Wunderground v.1.15,2013-11-17 22:02:00,
2013-11-17 17:07:00,59.6,57.0,29.72,South,178,3.0,7.0,91,0.00,,,0.10,Wunderground v.1.15,2013-11-17 22:07:00,
2013-11-17 17:13:00,60.1,57.2,29.71,ESE,117,4.0,5.0,90,0.00,,,0.10,Wunderground v.1.15,2013-11-17 22:13:00,
2013-11-17 17:18:00,60.2,56.9,29.71,SSW,204,4.0,6.0,89,0.00,,,0.10,Wunderground v.1.15,2013-11-17 22:18:00,
2013-11-17 17:23:00,60.2,56.9,29.71,South,184,3.0,5.0,89,0.00,,,0.10,Wunderground v.1.15,2013-11-17 22:23:00,
2013-11-17 17:29:00,60.2,56.9,29.71,South,185,2.0,7.0,89,0.00,,,0.10,Wunderground v.1.15,2013-11-17 22:29:00,
2013-11-17 17:34:00,60.2,56.9,29.71,South,184,2.0,3.0,89,0.00,,,0.11,Wunderground v.1.15,2013-11-17 22:34:00,
2013-11-17 17:39:00,60.2,56.9,29.71,SSE,147,2.0,4.0,89,0.07,,,0.12,Wunderground v.1.15,2013-11-17 22:39:00,
2013-11-17 17:45:00,60.0,57.1,29.70,WNW,298,2.0,2.0,90,0.07,,,0.12,Wunderground v.1.15,2013-11-17 22:45:00,
2013-11-17 17:50:00,59.7,57.1,29.71,South,173,1.0,1.0,91,0.06,,,0.13,Wunderground v.1.15,2013-11-17 22:50:00,
2013-11-17 17:55:00,59.5,56.9,29.70,SSW,193,0.0,4.0,91,0.06,,,0.13,Wunderground v.1.15,2013-11-17 22:55:00,
2013-11-17 18:00:00,59.5,56.9,29.70,South,172,1.0,1.0,91,0.04,,,0.13,Wunderground v.1.15,2013-11-17 23:00:00,
2013-11-17 18:06:00,59.4,57.1,29.70,WSW,244,1.0,1.0,92,0.04,,,0.14,Wunderground v.1.15,2013-11-17 23:06:00,
2013-11-17 18:12:00,59.2,56.9,29.70,SSE,153,0.0,1.0,92,0.04,,,0.14,Wunderground v.1.15,2013-11-17 23:12:00,
2013-11-17 18:17:00,59.2,56.9,29.71,South,177,1.0,2.0,92,0.04,,,0.14,Wunderground v.1.15,2013-11-17 23:17:00,
2013-11-17 18:22:00,59.1,57.1,29.70,East,101,1.0,5.0,93,0.00,,,0.14,Wunderground v.1.15,2013-11-17 23:22:00,
2013-11-17 18:27:00,59.1,57.1,29.69,SE,134,2.0,5.0,93,0.00,,,0.14,Wunderground v.1.15,2013-11-17 23:27:00,
2013-11-17 18:33:00,59.0,57.0,29.69,South,173,2.0,2.0,93,0.00,,,0.14,Wunderground v.1.15,2013-11-17 23:33:00,
2013-11-17 18:38:00,59.0,57.0,29.69,South,173,1.0,2.0,93,0.00,,,0.14,Wunderground v.1.15,2013-11-17 23:38:00,
2013-11-17 18:43:00,58.8,56.8,29.68,South,173,0.0,0.0,93,0.00,,,0.14,Wunderground v.1.15,2013-11-17 23:43:00,
2013-11-17 18:49:00,58.6,56.9,29.67,South,173,0.0,0.0,94,0.00,,,0.14,Wunderground v.1.15,2013-11-17 23:49:00,
2013-11-17 18:54:00,58.5,56.8,29.67,South,173,0.0,0.0,94,0.00,,,0.14,Wunderground v.1.15,2013-11-17 23:54:00,
2013-11-17 18:59:00,58.4,56.7,29.66,South,173,0.0,0.0,94,0.00,,,0.14,Wunderground v.1.15,2013-11-17 23:59:00,
2013-11-17 19:05:00,58.3,56.6,29.65,South,179,0.0,0.0,94,0.00,,,0.14,Wunderground v.1.15,2013-11-18 00:05:00,
2013-11-17 19:10:00,58.2,56.5,29.64,SSE,163,0.0,0.0,94,0.00,,,0.14,Wunderground v.1.15,2013-11-18 00:10:00,
2013-11-17 19:15:00,58.2,56.5,29.64,SSE,163,0.0,0.0,94,0.00,,,0.14,Wunderground v.1.15,2013-11-18 00:15:00,
2013-11-17 19:21:00,58.1,56.4,29.63,SSE,165,0.0,0.0,94,0.00,,,0.14,Wunderground v.1.15,2013-11-18 00:21:00,
2013-11-17 19:27:00,58.0,56.3,29.63,SSE,165,0.0,0.0,94,0.00,,,0.14,Wunderground v.1.15,2013-11-18 00:27:00,
2013-11-17 19:32:00,57.9,56.5,29.63,SSE,165,0.0,0.0,95,0.00,,,0.14,Wunderground v.1.15,2013-11-18 00:32:00,
2013-11-17 19:37:00,57.8,56.4,29.62,SSE,165,0.0,0.0,95,0.00,,,0.14,Wunderground v.1.15,2013-11-18 00:37:00,
2013-11-17 19:43:00,57.7,56.3,29.62,SSE,165,0.0,0.0,95,0.00,,,0.14,Wunderground v.1.15,2013-11-18 00:43:00,
2013-11-17 19:48:00,57.6,56.2,29.61,SSE,165,0.0,0.0,95,0.00,,,0.14,Wunderground v.1.15,2013-11-18 00:48:00,
2013-11-17 19:53:00,57.5,56.1,29.61,SSE,165,0.0,0.0,95,0.00,,,0.14,Wunderground v.1.15,2013-11-18 00:53:00,
2013-11-17 19:58:00,57.6,56.2,29.60,ESE,105,0.0,1.0,95,0.00,,,0.14,Wunderground v.1.15,2013-11-18 00:58:00,
2013-11-17 20:04:00,57.6,56.2,29.59,ESE,108,0.0,2.0,95,0.00,,,0.14,Wunderground v.1.15,2013-11-18 01:04:00,
2013-11-17 20:09:00,57.7,56.3,29.58,ESE,122,0.0,2.0,95,0.00,,,0.14,Wunderground v.1.15,2013-11-18 01:09:00,
2013-11-17 20:15:00,57.9,56.5,29.58,ESE,108,1.0,2.0,95,0.00,,,0.14,Wunderground v.1.15,2013-11-18 01:15:00,
2013-11-17 20:20:00,58.1,56.4,29.57,SE,144,1.0,1.0,94,0.00,,,0.14,Wunderground v.1.15,2013-11-18 01:20:00,
2013-11-17 20:25:00,58.3,56.6,29.57,South,180,1.0,3.0,94,0.00,,,0.14,Wunderground v.1.15,2013-11-18 01:25:00,
2013-11-17 20:31:00,58.6,56.6,29.57,South,180,1.0,2.0,93,0.00,,,0.14,Wunderground v.1.15,2013-11-18 01:31:00,
2013-11-17 20:36:00,58.9,56.9,29.56,ESE,122,1.0,5.0,93,0.00,,,0.14,Wunderground v.1.15,2013-11-18 01:36:00,
2013-11-17 20:41:00,59.1,56.8,29.56,NNE,26,1.0,4.0,92,0.00,,,0.14,Wunderground v.1.15,2013-11-18 01:41:00,
2013-11-17 20:46:00,59.3,57.0,29.56,ESE,121,1.0,9.0,92,0.00,,,0.14,Wunderground v.1.15,2013-11-18 01:46:00,
2013-11-17 20:52:00,59.5,57.2,29.56,SSW,193,2.0,3.0,92,0.00,,,0.14,Wunderground v.1.15,2013-11-18 01:52:00,
2013-11-17 20:57:00,59.5,57.2,29.56,NE,47,1.0,3.0,92,0.00,,,0.14,Wunderground v.1.15,2013-11-18 01:57:00,
2013-11-17 21:03:00,59.7,57.4,29.56,ESE,120,2.0,6.0,92,0.14,,,0.16,Wunderground v.1.15,2013-11-18 02:03:00,
2013-11-17 21:08:00,59.8,57.5,29.56,SW,226,3.0,6.0,92,0.11,,,0.16,Wunderground v.1.15,2013-11-18 02:08:00,
2013-11-17 21:13:00,59.8,57.5,29.55,East,99,2.0,3.0,92,0.06,,,0.16,Wunderground v.1.15,2013-11-18 02:13:00,
2013-11-17 21:18:00,59.9,57.6,29.55,ESE,114,2.0,5.0,92,0.04,,,0.16,Wunderground v.1.15,2013-11-18 02:18:00,
2013-11-17 21:23:00,60.0,57.7,29.55,ESE,121,2.0,4.0,92,0.00,,,0.16,Wunderground v.1.15,2013-11-18 02:23:00,
2013-11-17 21:28:00,60.1,57.8,29.55,East,84,2.0,4.0,92,0.00,,,0.16,Wunderground v.1.15,2013-11-18 02:28:00,
2013-11-17 21:34:00,60.1,57.8,29.56,East,96,2.0,3.0,92,0.00,,,0.16,Wunderground v.1.15,2013-11-18 02:34:00,
2013-11-17 21:39:00,60.1,57.8,29.55,SSE,160,2.0,7.0,92,0.00,,,0.16,Wunderground v.1.15,2013-11-18 02:39:00,
2013-11-17 21:44:00,60.3,57.7,29.54,South,173,2.0,6.0,91,0.00,,,0.16,Wunderground v.1.15,2013-11-18 02:44:00,
2013-11-17 21:49:00,60.3,57.7,29.54,SE,125,2.0,6.0,91,0.00,,,0.16,Wunderground v.1.15,2013-11-18 02:49:00,
2013-11-17 21:55:00,60.4,57.8,29.55,SSW,193,2.0,5.0,91,0.00,,,0.16,Wunderground v.1.15,2013-11-18 02:55:00,
2013-11-17 22:00:00,60.2,57.9,29.54,SSE,161,1.0,1.0,92,0.00,,,0.16,Wunderground v.1.15,2013-11-18 03:00:00,
2013-11-17 22:06:00,60.2,57.9,29.54,ESE,109,1.0,3.0,92,0.00,,,0.16,Wunderground v.1.15,2013-11-18 03:06:00,
2013-11-17 22:12:00,60.3,58.3,29.54,SE,130,1.0,3.0,93,0.00,,,0.16,Wunderground v.1.15,2013-11-18 03:12:00,
2013-11-17 22:17:00,60.3,58.3,29.54,North,350,1.0,3.0,93,0.00,,,0.16,Wunderground v.1.15,2013-11-18 03:17:00,
2013-11-17 22:22:00,60.2,58.2,29.55,South,180,0.0,1.0,93,0.00,,,0.16,Wunderground v.1.15,2013-11-18 03:22:00,
2013-11-17 22:28:00,60.0,58.3,29.59,West,277,0.0,1.0,94,0.00,,,0.16,Wunderground v.1.15,2013-11-18 03:28:00,
2013-11-17 22:33:00,60.1,58.4,29.59,SE,136,1.0,3.0,94,0.00,,,0.16,Wunderground v.1.15,2013-11-18 03:33:00,
2013-11-17 22:38:00,59.9,58.2,29.58,SSW,194,1.0,3.0,94,0.00,,,0.16,Wunderground v.1.15,2013-11-18 03:38:00,
2013-11-17 22:44:00,59.5,57.2,29.58,NE,34,0.0,1.0,92,0.00,,,0.16,Wunderground v.1.15,2013-11-18 03:44:00,
2013-11-17 22:49:00,59.1,56.8,29.57,East,92,0.0,2.0,92,0.00,,,0.16,Wunderground v.1.15,2013-11-18 03:49:00,
2013-11-17 22:54:00,58.7,56.4,29.56,East,92,0.0,0.0,92,0.00,,,0.16,Wunderground v.1.15,2013-11-18 03:54:00,
2013-11-17 23:00:00,58.2,56.2,29.57,SW,218,0.0,0.0,93,0.00,,,0.16,Wunderground v.1.15,2013-11-18 04:00:00,
2013-11-17 23:06:00,58.0,56.3,29.59,SW,218,0.0,0.0,94,0.00,,,0.16,Wunderground v.1.15,2013-11-18 04:06:00,
2013-11-17 23:12:00,57.7,56.0,29.59,SW,218,0.0,0.0,94,0.00,,,0.16,Wunderground v.1.15,2013-11-18 04:12:00,
2013-11-17 23:17:00,57.6,55.9,29.59,SSW,199,0.0,2.0,94,0.00,,,0.16,Wunderground v.1.15,2013-11-18 04:17:00,
2013-11-17 23:22:00,57.5,55.5,29.59,South,178,0.0,0.0,93,0.00,,,0.17,Wunderground v.1.15,2013-11-18 04:22:00,
2013-11-17 23:28:00,57.1,55.1,29.60,South,178,0.0,0.0,93,0.00,,,0.17,Wunderground v.1.15,2013-11-18 04:28:00,
2013-11-17 23:33:00,56.8,54.8,29.60,South,178,0.0,0.0,93,0.00,,,0.17,Wunderground v.1.15,2013-11-18 04:33:00,
2013-11-17 23:38:00,56.5,54.5,29.60,South,178,0.0,0.0,93,0.00,,,0.17,Wunderground v.1.15,2013-11-18 04:38:00,
2013-11-17 23:44:00,56.1,54.1,29.61,SSE,158,0.0,1.0,93,0.00,,,0.17,Wunderground v.1.15,2013-11-18 04:44:00,
2013-11-17 23:49:00,55.9,53.9,29.61,South,171,0.0,1.0,93,0.00,,,0.17,Wunderground v.1.15,2013-11-18 04:49:00,
2013-11-17 23:54:00,55.8,53.8,29.62,SSW,208,1.0,2.0,93,0.00,,,0.17,Wunderground v.1.15,2013-11-18 04:54:00,